Weather History for Munich, Germany

Change the Weather History Date:

Wednesday, August 7, 2013

  Actual Average Record
Temperature  
Mean Temperature 70 °F -  
Max Temperature 82 °F 74 °F 89 °F (2003)
Min Temperature 59 °F 54 °F 48 °F (1998)
Cooling Degree Days 6    
Growing Degree Days 20 (Base 50)    
Moisture  
Dew Point 63 °F    
Average Humidity 79    
Maximum Humidity 100    
Minimum Humidity 51    
Precipitation  
Precipitation 0.00 in - - ()
Sea Level Pressure  
Sea Level Pressure 29.93 in    
Wind  
Wind Speed 5 mph ()    
Max Wind Speed 17 mph    
Max Gust Speed -    
Visibility 6.2 miles    
Events Fog    
Averages and records for this station are not official NWS values.
T = Trace of Precipitation, MM = Missing Value Source: Averaged Metar Reports

Daily Weather History Graph

Daily Weather History Graph

Search for Another Location

Airport:

Trip Planner

Search our weather history database for the weather conditions in past years. The results will help you decide how hot, cold, wet, or windy it might be!

Date:

Astronomy

Aug. 07, 2013 Rise Set
Actual Time 5:55 AM CEST 8:40 PM CEST
Civil Twilight 5:19 AM CEST 9:15 PM CEST
Nautical Twilight 4:34 AM CEST 10:01 PM CEST
Astronomical Twilight 3:39 AM CEST 10:55 PM CEST
Moon 6:36 AM CEST (8/7) 8:28 PM CEST (8/7)
Length of Visible Light 15h 56m
Length of Day
14h 44m
Waxing Crescent, 0% of the Moon is Illuminated
Aug 7
Waxing Crescent
Aug 14
First Quarter
Aug 21
Full
Aug 28
Last Quarter
Sep 5
New

Hourly Weather History & Observations

Time (CEST) Temp. Heat Index Dew Point Humidity Pressure Visibility Wind Dir Wind Speed Gust Speed Precip Events Conditions
12:20 AM 64.4 °F - 62.6 °F 94% 30.04 in - SSW 5.8 mph - N/A   Clear
12:50 AM 62.6 °F - 60.8 °F 94% 30.04 in - East 4.6 mph - N/A   Clear
1:20 AM 62.6 °F - 60.8 °F 94% 30.01 in - SE 4.6 mph - N/A   Clear
1:50 AM 62.6 °F - 60.8 °F 94% 30.01 in - ESE 6.9 mph - N/A   Clear
2:20 AM 62.6 °F - 60.8 °F 94% 29.98 in - East 5.8 mph - N/A   Clear
2:50 AM 62.6 °F - 60.8 °F 94% 29.98 in - NNE 4.6 mph - N/A   Clear
3:20 AM 60.8 °F - 60.8 °F 100% 29.98 in - NE 3.5 mph - N/A   Clear
3:50 AM 60.8 °F - 59.0 °F 94% 29.98 in - NE 2.3 mph - N/A   Clear
4:20 AM 60.8 °F - 59.0 °F 94% 29.95 in - East 2.3 mph - N/A   Clear
4:50 AM 60.8 °F - 60.8 °F 100% 29.95 in - SE 2.3 mph - N/A   Clear
5:20 AM 59.0 °F - 59.0 °F 100% 29.95 in 6.2 mi NE 2.3 mph - N/A Fog Shallow Fog
5:50 AM 60.8 °F - 60.8 °F 100% 29.95 in 6.2 mi ENE 5.8 mph - N/A Fog Shallow Fog
6:20 AM 59.0 °F - 59.0 °F 100% 29.95 in - NE 6.9 mph - N/A   Clear
6:50 AM 60.8 °F - 60.8 °F 100% 29.95 in - ENE 6.9 mph - N/A   Clear
7:20 AM 62.6 °F - 62.6 °F 100% 29.92 in - East 6.9 mph - N/A   Clear
7:50 AM 64.4 °F - 60.8 °F 88% 29.92 in - East 9.2 mph - N/A   Clear
8:20 AM 66.2 °F - 62.6 °F 88% 29.92 in - East 6.9 mph - N/A   Clear
8:50 AM 66.2 °F - 62.6 °F 88% 29.92 in - East 6.9 mph - N/A   Clear
9:20 AM 68.0 °F - 62.6 °F 83% 29.95 in 6.2 mi Variable 3.5 mph - N/A   Mostly Cloudy
9:50 AM 68.0 °F - 62.6 °F 83% 30.01 in 6.2 mi West 17.3 mph - N/A   Mostly Cloudy
10:20 AM 68.0 °F - 62.6 °F 83% 30.01 in 6.2 mi NW 12.7 mph - N/A   Mostly Cloudy
10:50 AM 68.0 °F - 62.6 °F 83% 29.98 in 6.2 mi North 4.6 mph - N/A   Mostly Cloudy
11:20 AM 68.0 °F - 62.6 °F 83% 29.95 in 6.2 mi NE 6.9 mph - N/A   Mostly Cloudy
11:50 AM 68.0 °F - 62.6 °F 83% 29.95 in - NE 12.7 mph - N/A   Clear
12:20 PM 69.8 °F - 62.6 °F 78% 29.95 in - East 8.1 mph - N/A   Clear
12:50 PM 73.4 °F - 64.4 °F 73% 29.95 in - ESE 6.9 mph - N/A   Clear
1:20 PM 75.2 °F - 62.6 °F 65% 29.92 in - ENE 4.6 mph - N/A   Clear
1:50 PM 77.0 °F - 64.4 °F 65% 29.92 in - East 6.9 mph - N/A   Clear
2:20 PM 78.8 °F - 64.4 °F 61% 29.89 in - ENE 5.8 mph - N/A   Clear
2:50 PM 78.8 °F - 62.6 °F 57% 29.89 in - East 6.9 mph - N/A   Clear
3:20 PM 80.6 °F 81.8 °F 62.6 °F 54% 29.89 in - ENE 5.8 mph - N/A   Clear
3:50 PM 82.4 °F 83.4 °F 62.6 °F 51% 29.89 in - ENE 6.9 mph - N/A   Clear
4:20 PM 82.4 °F 83.9 °F 64.4 °F 54% 29.89 in - NNE 6.9 mph - N/A   Clear
4:50 PM 82.4 °F 83.4 °F 62.6 °F 51% 29.89 in - North 5.8 mph - N/A   Clear
5:20 PM 82.4 °F 83.9 °F 64.4 °F 54% 29.89 in - NE 6.9 mph - N/A   Clear
5:50 PM 80.6 °F 82.7 °F 66.2 °F 61% 29.89 in - NNE 5.8 mph - N/A   Clear
6:20 PM 80.6 °F 82.7 °F 66.2 °F 61% 29.86 in - NNE 5.8 mph - N/A   Clear
6:50 PM 80.6 °F 82.7 °F 66.2 °F 61% 29.86 in - NNW 3.5 mph - N/A   Clear
7:20 PM 78.8 °F - 68.0 °F 69% 29.86 in - Variable 1.2 mph - N/A   Clear
7:50 PM 78.8 °F - 68.0 °F 69% 29.86 in - Variable 1.2 mph - N/A   Clear
8:20 PM 77.0 °F - 66.2 °F 69% 29.86 in - NE 4.6 mph - N/A   Clear
8:50 PM 77.0 °F - 68.0 °F 74% 29.86 in - North 4.6 mph - N/A   Clear
9:20 PM 73.4 °F - 68.0 °F 83% 29.86 in - NNW 5.8 mph - N/A   Clear
9:50 PM 73.4 °F - 66.2 °F 78% 29.86 in - NNW 5.8 mph - N/A   Clear
10:20 PM 73.4 °F - 66.2 °F 78% 29.86 in - NNW 6.9 mph - N/A   Clear
10:50 PM 73.4 °F - 66.2 °F 78% 29.86 in - NNW 6.9 mph - N/A   Clear
11:20 PM 73.4 °F - 66.2 °F 78% 29.89 in - NNW 6.9 mph - N/A   Clear
11:50 PM 73.4 °F - 64.4 °F 73% 29.89 in - WNW 8.1 mph - N/A   Clear